Find Fuji-OSCAR-20

NORAD ID: 20480 Int'l Des: 1990-013 Owner: JARL Country: J operational
LEORETROGRADE

Live Position

Loading 3D Globe...

About Fuji-OSCAR-20

Description loading...

Upcoming Passes

Passes for default location (London). Set your location on the main map for personalized predictions.

Altitude History

Loading altitude history...

Two-Line Element Set

1 20480U 90013C 26103.54527903 -.00000029 00000-0 15918-4 0 9994
2 20480 99.0702 38.4452 0539149 291.0367 63.3890 12.83488921695047
Epoch: Apr 13, 2026 • Age: 27 hours

Current Status

Altitude 1606.7 km
Velocity 6.94 km/s
Sub-Earth Point 25.16°N, 138.79°E
Launch Date Feb 7, 1990
Age 36.1 years
Type other

Technical Details

Classification Payload
Mass 50.00 kg
Dry Mass 50.00 kg
Total Mass 50.00 kg
Length 0.50 m
Diameter 0.40 m
Span 0.50 m
Shape Poly
Manufacturer JARL
Bus Type JAS
Phase Status In Orbit
Owner/State JARL/J

Most Searched